<?xml version="1.0" encoding="UTF-8" standalone="no" ?>
<gpx xmlns="http://www.topografix.com/GPX/1/1" xmlns:xsi="http://www.w3.org/2001/XMLSchema-instance" xsi:schemaLocation="http://www.topografix.com/GPX/1/1 http://www.topografix.com/GPX/1/1/gpx.xsd" version="1.1" creator="VisuGPX - https://www.visugpx.com">
  <metadata>
    <name>tete de fer</name>
    <desc><![CDATA[depart de l'arche vers tete de fer]]></desc>
  </metadata>
  <trk>
    <name><![CDATA[TRACE01]]></name>
    <trkseg>
      <trkpt lat="44.44949" lon="6.84742">
        <ele>1679</ele>
        <time>2010-02-16T15:12:46Z</time>
      </trkpt>
      <trkpt lat="44.44913" lon="6.84738">
        <ele>1678</ele>
        <time>2010-02-16T15:12:46Z</time>
      </trkpt>
      <trkpt lat="44.44916" lon="6.84733">
        <ele>1678</ele>
        <time>2010-02-16T15:12:46Z</time>
      </trkpt>
      <trkpt lat="44.44904" lon="6.84705">
        <ele>1677</ele>
        <time>2010-02-16T15:12:46Z</time>
      </trkpt>
      <trkpt lat="44.449" lon="6.84678">
        <ele>1678</ele>
        <time>2010-02-16T15:12:46Z</time>
      </trkpt>
      <trkpt lat="44.44913" lon="6.84648">
        <ele>1678</ele>
        <time>2010-02-16T15:12:46Z</time>
      </trkpt>
      <trkpt lat="44.44905" lon="6.84626">
        <ele>1678</ele>
        <time>2010-02-16T15:12:46Z</time>
      </trkpt>
      <trkpt lat="44.44889" lon="6.84625">
        <ele>1678</ele>
        <time>2010-02-16T15:12:46Z</time>
      </trkpt>
      <trkpt lat="44.44884" lon="6.84629">
        <ele>1675</ele>
        <time>2010-02-16T15:12:46Z</time>
      </trkpt>
      <trkpt lat="44.44827" lon="6.84693">
        <ele>1679</ele>
        <time>2010-02-16T15:12:46Z</time>
      </trkpt>
      <trkpt lat="44.4482" lon="6.84715">
        <ele>1677</ele>
        <time>2010-02-16T15:12:46Z</time>
      </trkpt>
      <trkpt lat="44.44807" lon="6.84737">
        <ele>1678</ele>
        <time>2010-02-16T15:12:46Z</time>
      </trkpt>
      <trkpt lat="44.44741" lon="6.84819">
        <ele>1680</ele>
        <time>2010-02-16T15:12:46Z</time>
      </trkpt>
      <trkpt lat="44.44726" lon="6.84831">
        <ele>1682</ele>
        <time>2010-02-16T15:12:46Z</time>
      </trkpt>
      <trkpt lat="44.44702" lon="6.84861">
        <ele>1681</ele>
        <time>2010-02-16T15:12:46Z</time>
      </trkpt>
      <trkpt lat="44.44691" lon="6.84869">
        <ele>1681</ele>
        <time>2010-02-16T15:12:46Z</time>
      </trkpt>
      <trkpt lat="44.44665" lon="6.84918">
        <ele>1682</ele>
        <time>2010-02-16T15:12:46Z</time>
      </trkpt>
      <trkpt lat="44.44645" lon="6.84949">
        <ele>1681</ele>
        <time>2010-02-16T15:12:46Z</time>
      </trkpt>
      <trkpt lat="44.44638" lon="6.84969">
        <ele>1682</ele>
        <time>2010-02-16T15:12:46Z</time>
      </trkpt>
      <trkpt lat="44.44638" lon="6.84971">
        <ele>1685</ele>
        <time>2010-02-16T15:12:46Z</time>
      </trkpt>
      <trkpt lat="44.44605" lon="6.85059">
        <ele>1683</ele>
        <time>2010-02-16T15:12:46Z</time>
      </trkpt>
      <trkpt lat="44.446" lon="6.85069">
        <ele>1684</ele>
        <time>2010-02-16T15:12:46Z</time>
      </trkpt>
      <trkpt lat="44.44586" lon="6.85079">
        <ele>1683</ele>
        <time>2010-02-16T15:12:46Z</time>
      </trkpt>
      <trkpt lat="44.44521" lon="6.852">
        <ele>1686</ele>
        <time>2010-02-16T15:12:46Z</time>
      </trkpt>
      <trkpt lat="44.44497" lon="6.85218">
        <ele>1689</ele>
        <time>2010-02-16T15:12:46Z</time>
      </trkpt>
      <trkpt lat="44.44462" lon="6.8522">
        <ele>1687</ele>
        <time>2010-02-16T15:12:46Z</time>
      </trkpt>
      <trkpt lat="44.44445" lon="6.85246">
        <ele>1692</ele>
        <time>2010-02-16T15:12:46Z</time>
      </trkpt>
      <trkpt lat="44.44444" lon="6.85247">
        <ele>1689</ele>
        <time>2010-02-16T15:12:46Z</time>
      </trkpt>
      <trkpt lat="44.44414" lon="6.8529">
        <ele>1689</ele>
        <time>2010-02-16T15:12:46Z</time>
      </trkpt>
      <trkpt lat="44.44385" lon="6.85309">
        <ele>1690</ele>
        <time>2010-02-16T15:12:46Z</time>
      </trkpt>
      <trkpt lat="44.44366" lon="6.85329">
        <ele>1690</ele>
        <time>2010-02-16T15:12:46Z</time>
      </trkpt>
      <trkpt lat="44.44325" lon="6.85384">
        <ele>1693</ele>
        <time>2010-02-16T15:12:46Z</time>
      </trkpt>
      <trkpt lat="44.44292" lon="6.85419">
        <ele>1696</ele>
        <time>2010-02-16T15:12:46Z</time>
      </trkpt>
      <trkpt lat="44.44282" lon="6.85441">
        <ele>1696</ele>
        <time>2010-02-16T15:12:46Z</time>
      </trkpt>
      <trkpt lat="44.44273" lon="6.8548">
        <ele>1694</ele>
        <time>2010-02-16T15:12:46Z</time>
      </trkpt>
      <trkpt lat="44.44238" lon="6.85532">
        <ele>1699</ele>
        <time>2010-02-16T15:12:46Z</time>
      </trkpt>
      <trkpt lat="44.44229" lon="6.85538">
        <ele>1700</ele>
        <time>2010-02-16T15:12:46Z</time>
      </trkpt>
      <trkpt lat="44.44213" lon="6.8558">
        <ele>1701</ele>
        <time>2010-02-16T15:12:46Z</time>
      </trkpt>
      <trkpt lat="44.44179" lon="6.85636">
        <ele>1700</ele>
        <time>2010-02-16T15:12:46Z</time>
      </trkpt>
      <trkpt lat="44.44131" lon="6.8567">
        <ele>1700</ele>
        <time>2010-02-16T15:12:46Z</time>
      </trkpt>
      <trkpt lat="44.44111" lon="6.85679">
        <ele>1701</ele>
        <time>2010-02-16T15:12:46Z</time>
      </trkpt>
      <trkpt lat="44.44096" lon="6.85693">
        <ele>1704</ele>
        <time>2010-02-16T15:12:46Z</time>
      </trkpt>
      <trkpt lat="44.44089" lon="6.85697">
        <ele>1705</ele>
        <time>2010-02-16T15:12:46Z</time>
      </trkpt>
      <trkpt lat="44.44058" lon="6.85694">
        <ele>1708</ele>
        <time>2010-02-16T15:12:46Z</time>
      </trkpt>
      <trkpt lat="44.44058" lon="6.857">
        <ele>1709</ele>
        <time>2010-02-16T15:12:46Z</time>
      </trkpt>
      <trkpt lat="44.44033" lon="6.85707">
        <ele>1712</ele>
        <time>2010-02-16T15:12:46Z</time>
      </trkpt>
      <trkpt lat="44.44016" lon="6.8572">
        <ele>1714</ele>
        <time>2010-02-16T15:12:46Z</time>
      </trkpt>
      <trkpt lat="44.43974" lon="6.85715">
        <ele>1720</ele>
        <time>2010-02-16T15:12:46Z</time>
      </trkpt>
      <trkpt lat="44.4394" lon="6.85731">
        <ele>1723</ele>
        <time>2010-02-16T15:12:46Z</time>
      </trkpt>
      <trkpt lat="44.43932" lon="6.85722">
        <ele>1724</ele>
        <time>2010-02-16T15:12:46Z</time>
      </trkpt>
      <trkpt lat="44.4393" lon="6.85718">
        <ele>1729</ele>
        <time>2010-02-16T15:12:46Z</time>
      </trkpt>
      <trkpt lat="44.43919" lon="6.85711">
        <ele>1728</ele>
        <time>2010-02-16T15:12:46Z</time>
      </trkpt>
      <trkpt lat="44.43914" lon="6.85698">
        <ele>1730</ele>
        <time>2010-02-16T15:12:46Z</time>
      </trkpt>
      <trkpt lat="44.43908" lon="6.85706">
        <ele>1730</ele>
        <time>2010-02-16T15:12:46Z</time>
      </trkpt>
      <trkpt lat="44.43913" lon="6.85714">
        <ele>1731</ele>
        <time>2010-02-16T15:12:46Z</time>
      </trkpt>
      <trkpt lat="44.43918" lon="6.85774">
        <ele>1733</ele>
        <time>2010-02-16T15:12:46Z</time>
      </trkpt>
      <trkpt lat="44.43906" lon="6.85762">
        <ele>1735</ele>
        <time>2010-02-16T15:12:46Z</time>
      </trkpt>
      <trkpt lat="44.43895" lon="6.85741">
        <ele>1736</ele>
        <time>2010-02-16T15:12:46Z</time>
      </trkpt>
      <trkpt lat="44.43888" lon="6.85716">
        <ele>1744</ele>
        <time>2010-02-16T15:12:46Z</time>
      </trkpt>
      <trkpt lat="44.43878" lon="6.857">
        <ele>1748</ele>
        <time>2010-02-16T15:12:46Z</time>
      </trkpt>
      <trkpt lat="44.43871" lon="6.85721">
        <ele>1750</ele>
        <time>2010-02-16T15:12:46Z</time>
      </trkpt>
      <trkpt lat="44.4387" lon="6.85739">
        <ele>1753</ele>
        <time>2010-02-16T15:12:46Z</time>
      </trkpt>
      <trkpt lat="44.43862" lon="6.85744">
        <ele>1756</ele>
        <time>2010-02-16T15:12:46Z</time>
      </trkpt>
      <trkpt lat="44.43845" lon="6.85741">
        <ele>1760</ele>
        <time>2010-02-16T15:12:46Z</time>
      </trkpt>
      <trkpt lat="44.43851" lon="6.85729">
        <ele>1763</ele>
        <time>2010-02-16T15:12:46Z</time>
      </trkpt>
      <trkpt lat="44.43848" lon="6.85709">
        <ele>1765</ele>
        <time>2010-02-16T15:12:46Z</time>
      </trkpt>
      <trkpt lat="44.43843" lon="6.85709">
        <ele>1768</ele>
        <time>2010-02-16T15:12:46Z</time>
      </trkpt>
      <trkpt lat="44.4384" lon="6.85701">
        <ele>1768</ele>
        <time>2010-02-16T15:12:46Z</time>
      </trkpt>
      <trkpt lat="44.43847" lon="6.85689">
        <ele>1771</ele>
        <time>2010-02-16T15:12:46Z</time>
      </trkpt>
      <trkpt lat="44.43835" lon="6.85703">
        <ele>1773</ele>
        <time>2010-02-16T15:12:46Z</time>
      </trkpt>
      <trkpt lat="44.43828" lon="6.85726">
        <ele>1774</ele>
        <time>2010-02-16T15:12:46Z</time>
      </trkpt>
      <trkpt lat="44.43828" lon="6.85687">
        <ele>1779</ele>
        <time>2010-02-16T15:12:46Z</time>
      </trkpt>
      <trkpt lat="44.43818" lon="6.85717">
        <ele>1783</ele>
        <time>2010-02-16T15:12:46Z</time>
      </trkpt>
      <trkpt lat="44.43823" lon="6.85698">
        <ele>1789</ele>
        <time>2010-02-16T15:12:46Z</time>
      </trkpt>
      <trkpt lat="44.43815" lon="6.85677">
        <ele>1792</ele>
        <time>2010-02-16T15:12:46Z</time>
      </trkpt>
      <trkpt lat="44.43807" lon="6.85695">
        <ele>1793</ele>
        <time>2010-02-16T15:12:46Z</time>
      </trkpt>
      <trkpt lat="44.43804" lon="6.85695">
        <ele>1794</ele>
        <time>2010-02-16T15:12:46Z</time>
      </trkpt>
      <trkpt lat="44.43803" lon="6.85678">
        <ele>1795</ele>
        <time>2010-02-16T15:12:46Z</time>
      </trkpt>
      <trkpt lat="44.43797" lon="6.85694">
        <ele>1798</ele>
        <time>2010-02-16T15:12:46Z</time>
      </trkpt>
      <trkpt lat="44.43797" lon="6.85669">
        <ele>1801</ele>
        <time>2010-02-16T15:12:46Z</time>
      </trkpt>
      <trkpt lat="44.43784" lon="6.85638">
        <ele>1807</ele>
        <time>2010-02-16T15:12:46Z</time>
      </trkpt>
      <trkpt lat="44.43771" lon="6.8569">
        <ele>1816</ele>
        <time>2010-02-16T15:12:46Z</time>
      </trkpt>
      <trkpt lat="44.43759" lon="6.85709">
        <ele>1821</ele>
        <time>2010-02-16T15:12:46Z</time>
      </trkpt>
      <trkpt lat="44.43763" lon="6.85691">
        <ele>1822</ele>
        <time>2010-02-16T15:12:46Z</time>
      </trkpt>
      <trkpt lat="44.43759" lon="6.85681">
        <ele>1826</ele>
        <time>2010-02-16T15:12:46Z</time>
      </trkpt>
      <trkpt lat="44.43751" lon="6.85645">
        <ele>1828</ele>
        <time>2010-02-16T15:12:46Z</time>
      </trkpt>
      <trkpt lat="44.43745" lon="6.85675">
        <ele>1833</ele>
        <time>2010-02-16T15:12:46Z</time>
      </trkpt>
      <trkpt lat="44.43731" lon="6.85699">
        <ele>1839</ele>
        <time>2010-02-16T15:12:46Z</time>
      </trkpt>
      <trkpt lat="44.43714" lon="6.85681">
        <ele>1841</ele>
        <time>2010-02-16T15:12:46Z</time>
      </trkpt>
      <trkpt lat="44.43728" lon="6.85678">
        <ele>1846</ele>
        <time>2010-02-16T15:12:46Z</time>
      </trkpt>
      <trkpt lat="44.43723" lon="6.85657">
        <ele>1850</ele>
        <time>2010-02-16T15:12:46Z</time>
      </trkpt>
      <trkpt lat="44.43716" lon="6.85642">
        <ele>1850</ele>
        <time>2010-02-16T15:12:46Z</time>
      </trkpt>
      <trkpt lat="44.43707" lon="6.85684">
        <ele>1855</ele>
        <time>2010-02-16T15:12:46Z</time>
      </trkpt>
      <trkpt lat="44.43702" lon="6.85654">
        <ele>1860</ele>
        <time>2010-02-16T15:12:46Z</time>
      </trkpt>
      <trkpt lat="44.43694" lon="6.85631">
        <ele>1867</ele>
        <time>2010-02-16T15:12:46Z</time>
      </trkpt>
      <trkpt lat="44.43697" lon="6.8561">
        <ele>1874</ele>
        <time>2010-02-16T15:12:46Z</time>
      </trkpt>
      <trkpt lat="44.43685" lon="6.85577">
        <ele>1879</ele>
        <time>2010-02-16T15:12:46Z</time>
      </trkpt>
      <trkpt lat="44.4366" lon="6.85552">
        <ele>1883</ele>
        <time>2010-02-16T15:12:46Z</time>
      </trkpt>
      <trkpt lat="44.43654" lon="6.85525">
        <ele>1888</ele>
        <time>2010-02-16T15:12:46Z</time>
      </trkpt>
      <trkpt lat="44.43622" lon="6.85486">
        <ele>1893</ele>
        <time>2010-02-16T15:12:46Z</time>
      </trkpt>
      <trkpt lat="44.43615" lon="6.8547">
        <ele>1896</ele>
        <time>2010-02-16T15:12:46Z</time>
      </trkpt>
      <trkpt lat="44.436" lon="6.8546">
        <ele>1900</ele>
        <time>2010-02-16T15:12:46Z</time>
      </trkpt>
      <trkpt lat="44.43595" lon="6.85447">
        <ele>1901</ele>
        <time>2010-02-16T15:12:46Z</time>
      </trkpt>
      <trkpt lat="44.43572" lon="6.85419">
        <ele>1907</ele>
        <time>2010-02-16T15:12:46Z</time>
      </trkpt>
      <trkpt lat="44.43559" lon="6.85415">
        <ele>1908</ele>
        <time>2010-02-16T15:12:46Z</time>
      </trkpt>
      <trkpt lat="44.43567" lon="6.854">
        <ele>1910</ele>
        <time>2010-02-16T15:12:46Z</time>
      </trkpt>
      <trkpt lat="44.43547" lon="6.85368">
        <ele>1911</ele>
        <time>2010-02-16T15:12:46Z</time>
      </trkpt>
      <trkpt lat="44.43536" lon="6.85357">
        <ele>1912</ele>
        <time>2010-02-16T15:12:46Z</time>
      </trkpt>
      <trkpt lat="44.43525" lon="6.8537">
        <ele>1914</ele>
        <time>2010-02-16T15:12:46Z</time>
      </trkpt>
      <trkpt lat="44.43527" lon="6.85355">
        <ele>1917</ele>
        <time>2010-02-16T15:12:46Z</time>
      </trkpt>
      <trkpt lat="44.43529" lon="6.85354">
        <ele>1921</ele>
        <time>2010-02-16T15:12:46Z</time>
      </trkpt>
      <trkpt lat="44.43516" lon="6.85347">
        <ele>1921</ele>
        <time>2010-02-16T15:12:46Z</time>
      </trkpt>
      <trkpt lat="44.43495" lon="6.85344">
        <ele>1927</ele>
        <time>2010-02-16T15:12:46Z</time>
      </trkpt>
      <trkpt lat="44.43494" lon="6.85329">
        <ele>1930</ele>
        <time>2010-02-16T15:12:46Z</time>
      </trkpt>
      <trkpt lat="44.43484" lon="6.85331">
        <ele>1932</ele>
        <time>2010-02-16T15:12:46Z</time>
      </trkpt>
      <trkpt lat="44.43477" lon="6.85311">
        <ele>1936</ele>
        <time>2010-02-16T15:12:46Z</time>
      </trkpt>
      <trkpt lat="44.43461" lon="6.85287">
        <ele>1941</ele>
        <time>2010-02-16T15:12:46Z</time>
      </trkpt>
      <trkpt lat="44.43441" lon="6.8527">
        <ele>1944</ele>
        <time>2010-02-16T15:12:46Z</time>
      </trkpt>
      <trkpt lat="44.43422" lon="6.85241">
        <ele>1947</ele>
        <time>2010-02-16T15:12:46Z</time>
      </trkpt>
      <trkpt lat="44.43413" lon="6.85223">
        <ele>1949</ele>
        <time>2010-02-16T15:12:46Z</time>
      </trkpt>
      <trkpt lat="44.43415" lon="6.85204">
        <ele>1950</ele>
        <time>2010-02-16T15:12:46Z</time>
      </trkpt>
      <trkpt lat="44.43409" lon="6.85196">
        <ele>1952</ele>
        <time>2010-02-16T15:12:46Z</time>
      </trkpt>
      <trkpt lat="44.43397" lon="6.8517">
        <ele>1954</ele>
        <time>2010-02-16T15:12:46Z</time>
      </trkpt>
      <trkpt lat="44.43376" lon="6.85142">
        <ele>1956</ele>
        <time>2010-02-16T15:12:46Z</time>
      </trkpt>
      <trkpt lat="44.43361" lon="6.85113">
        <ele>1958</ele>
        <time>2010-02-16T15:12:46Z</time>
      </trkpt>
      <trkpt lat="44.4332" lon="6.85097">
        <ele>1962</ele>
        <time>2010-02-16T15:12:46Z</time>
      </trkpt>
      <trkpt lat="44.43315" lon="6.85081">
        <ele>1963</ele>
        <time>2010-02-16T15:12:46Z</time>
      </trkpt>
      <trkpt lat="44.43286" lon="6.85067">
        <ele>1967</ele>
        <time>2010-02-16T15:12:46Z</time>
      </trkpt>
      <trkpt lat="44.43281" lon="6.85056">
        <ele>1967</ele>
        <time>2010-02-16T15:12:46Z</time>
      </trkpt>
      <trkpt lat="44.43272" lon="6.85059">
        <ele>1968</ele>
        <time>2010-02-16T15:12:46Z</time>
      </trkpt>
      <trkpt lat="44.4326" lon="6.85054">
        <ele>1970</ele>
        <time>2010-02-16T15:12:46Z</time>
      </trkpt>
      <trkpt lat="44.43241" lon="6.85003">
        <ele>1975</ele>
        <time>2010-02-16T15:12:46Z</time>
      </trkpt>
      <trkpt lat="44.43223" lon="6.8498">
        <ele>1976</ele>
        <time>2010-02-16T15:12:46Z</time>
      </trkpt>
      <trkpt lat="44.4319" lon="6.84963">
        <ele>1981</ele>
        <time>2010-02-16T15:12:46Z</time>
      </trkpt>
      <trkpt lat="44.43165" lon="6.84937">
        <ele>1985</ele>
        <time>2010-02-16T15:12:46Z</time>
      </trkpt>
      <trkpt lat="44.43149" lon="6.84928">
        <ele>1987</ele>
        <time>2010-02-16T15:12:46Z</time>
      </trkpt>
      <trkpt lat="44.43139" lon="6.84916">
        <ele>1990</ele>
        <time>2010-02-16T15:12:46Z</time>
      </trkpt>
      <trkpt lat="44.43131" lon="6.84914">
        <ele>1992</ele>
        <time>2010-02-16T15:12:46Z</time>
      </trkpt>
      <trkpt lat="44.43105" lon="6.84869">
        <ele>1997</ele>
        <time>2010-02-16T15:12:46Z</time>
      </trkpt>
      <trkpt lat="44.43082" lon="6.84853">
        <ele>1999</ele>
        <time>2010-02-16T15:12:46Z</time>
      </trkpt>
      <trkpt lat="44.43028" lon="6.84807">
        <ele>2008</ele>
        <time>2010-02-16T15:12:46Z</time>
      </trkpt>
      <trkpt lat="44.4301" lon="6.84776">
        <ele>2011</ele>
        <time>2010-02-16T15:12:46Z</time>
      </trkpt>
      <trkpt lat="44.42995" lon="6.84725">
        <ele>2015</ele>
        <time>2010-02-16T15:12:46Z</time>
      </trkpt>
      <trkpt lat="44.42972" lon="6.84678">
        <ele>2020</ele>
        <time>2010-02-16T15:12:46Z</time>
      </trkpt>
      <trkpt lat="44.42937" lon="6.84659">
        <ele>2030</ele>
        <time>2010-02-16T15:12:46Z</time>
      </trkpt>
      <trkpt lat="44.42929" lon="6.84645">
        <ele>2035</ele>
        <time>2010-02-16T15:12:46Z</time>
      </trkpt>
      <trkpt lat="44.42904" lon="6.8463">
        <ele>2048</ele>
        <time>2010-02-16T15:12:46Z</time>
      </trkpt>
      <trkpt lat="44.42895" lon="6.84564">
        <ele>2057</ele>
        <time>2010-02-16T15:12:46Z</time>
      </trkpt>
      <trkpt lat="44.42888" lon="6.84535">
        <ele>2064</ele>
        <time>2010-02-16T15:12:46Z</time>
      </trkpt>
      <trkpt lat="44.42891" lon="6.84507">
        <ele>2069</ele>
        <time>2010-02-16T15:12:46Z</time>
      </trkpt>
      <trkpt lat="44.42897" lon="6.84495">
        <ele>2073</ele>
        <time>2010-02-16T15:12:46Z</time>
      </trkpt>
      <trkpt lat="44.42887" lon="6.84489">
        <ele>2073</ele>
        <time>2010-02-16T15:12:46Z</time>
      </trkpt>
      <trkpt lat="44.42879" lon="6.84487">
        <ele>2078</ele>
        <time>2010-02-16T15:12:46Z</time>
      </trkpt>
      <trkpt lat="44.42887" lon="6.84471">
        <ele>2082</ele>
        <time>2010-02-16T15:12:46Z</time>
      </trkpt>
      <trkpt lat="44.42882" lon="6.84468">
        <ele>2081</ele>
        <time>2010-02-16T15:12:46Z</time>
      </trkpt>
      <trkpt lat="44.42884" lon="6.84463">
        <ele>2083</ele>
        <time>2010-02-16T15:12:46Z</time>
      </trkpt>
      <trkpt lat="44.42878" lon="6.84462">
        <ele>2087</ele>
        <time>2010-02-16T15:12:46Z</time>
      </trkpt>
      <trkpt lat="44.42882" lon="6.84453">
        <ele>2086</ele>
        <time>2010-02-16T15:12:46Z</time>
      </trkpt>
      <trkpt lat="44.42871" lon="6.84452">
        <ele>2091</ele>
        <time>2010-02-16T15:12:46Z</time>
      </trkpt>
      <trkpt lat="44.42843" lon="6.84466">
        <ele>2099</ele>
        <time>2010-02-16T15:12:46Z</time>
      </trkpt>
      <trkpt lat="44.42845" lon="6.84437">
        <ele>2104</ele>
        <time>2010-02-16T15:12:46Z</time>
      </trkpt>
      <trkpt lat="44.42817" lon="6.8445">
        <ele>2115</ele>
        <time>2010-02-16T15:12:46Z</time>
      </trkpt>
      <trkpt lat="44.42825" lon="6.8441">
        <ele>2120</ele>
        <time>2010-02-16T15:12:46Z</time>
      </trkpt>
      <trkpt lat="44.42798" lon="6.8443">
        <ele>2130</ele>
        <time>2010-02-16T15:12:46Z</time>
      </trkpt>
      <trkpt lat="44.428" lon="6.84412">
        <ele>2135</ele>
        <time>2010-02-16T15:12:46Z</time>
      </trkpt>
      <trkpt lat="44.42779" lon="6.84427">
        <ele>2142</ele>
        <time>2010-02-16T15:12:46Z</time>
      </trkpt>
      <trkpt lat="44.42778" lon="6.84409">
        <ele>2147</ele>
        <time>2010-02-16T15:12:46Z</time>
      </trkpt>
      <trkpt lat="44.42775" lon="6.84408">
        <ele>2148</ele>
        <time>2010-02-16T15:12:46Z</time>
      </trkpt>
      <trkpt lat="44.42761" lon="6.84424">
        <ele>2152</ele>
        <time>2010-02-16T15:12:46Z</time>
      </trkpt>
      <trkpt lat="44.42755" lon="6.84384">
        <ele>2159</ele>
        <time>2010-02-16T15:12:46Z</time>
      </trkpt>
      <trkpt lat="44.42733" lon="6.84357">
        <ele>2163</ele>
        <time>2010-02-16T15:12:46Z</time>
      </trkpt>
      <trkpt lat="44.4273" lon="6.84338">
        <ele>2161</ele>
        <time>2010-02-16T15:12:46Z</time>
      </trkpt>
      <trkpt lat="44.42727" lon="6.84341">
        <ele>2162</ele>
        <time>2010-02-16T15:12:46Z</time>
      </trkpt>
      <trkpt lat="44.42696" lon="6.8432">
        <ele>2167</ele>
        <time>2010-02-16T15:12:46Z</time>
      </trkpt>
      <trkpt lat="44.42647" lon="6.8431">
        <ele>2166</ele>
        <time>2010-02-16T15:12:46Z</time>
      </trkpt>
      <trkpt lat="44.426" lon="6.84307">
        <ele>2174</ele>
        <time>2010-02-16T15:12:46Z</time>
      </trkpt>
      <trkpt lat="44.42589" lon="6.84297">
        <ele>2180</ele>
        <time>2010-02-16T15:12:46Z</time>
      </trkpt>
      <trkpt lat="44.42577" lon="6.84275">
        <ele>2187</ele>
        <time>2010-02-16T15:12:46Z</time>
      </trkpt>
      <trkpt lat="44.42569" lon="6.84294">
        <ele>2193</ele>
        <time>2010-02-16T15:12:46Z</time>
      </trkpt>
      <trkpt lat="44.42556" lon="6.84259">
        <ele>2203</ele>
        <time>2010-02-16T15:12:46Z</time>
      </trkpt>
      <trkpt lat="44.42542" lon="6.84257">
        <ele>2206</ele>
        <time>2010-02-16T15:12:46Z</time>
      </trkpt>
      <trkpt lat="44.42526" lon="6.84274">
        <ele>2212</ele>
        <time>2010-02-16T15:12:46Z</time>
      </trkpt>
      <trkpt lat="44.4252" lon="6.84271">
        <ele>2214</ele>
        <time>2010-02-16T15:12:46Z</time>
      </trkpt>
      <trkpt lat="44.42512" lon="6.84259">
        <ele>2216</ele>
        <time>2010-02-16T15:12:46Z</time>
      </trkpt>
      <trkpt lat="44.42521" lon="6.84246">
        <ele>2219</ele>
        <time>2010-02-16T15:12:46Z</time>
      </trkpt>
      <trkpt lat="44.42516" lon="6.84218">
        <ele>2225</ele>
        <time>2010-02-16T15:12:46Z</time>
      </trkpt>
      <trkpt lat="44.42509" lon="6.84221">
        <ele>2226</ele>
        <time>2010-02-16T15:12:46Z</time>
      </trkpt>
      <trkpt lat="44.425" lon="6.84218">
        <ele>2228</ele>
        <time>2010-02-16T15:12:46Z</time>
      </trkpt>
      <trkpt lat="44.42505" lon="6.84207">
        <ele>2231</ele>
        <time>2010-02-16T15:12:46Z</time>
      </trkpt>
      <trkpt lat="44.42506" lon="6.84199">
        <ele>2232</ele>
        <time>2010-02-16T15:12:46Z</time>
      </trkpt>
      <trkpt lat="44.425" lon="6.84195">
        <ele>2237</ele>
        <time>2010-02-16T15:12:46Z</time>
      </trkpt>
      <trkpt lat="44.42503" lon="6.84174">
        <ele>2240</ele>
        <time>2010-02-16T15:12:46Z</time>
      </trkpt>
      <trkpt lat="44.42479" lon="6.8416">
        <ele>2246</ele>
        <time>2010-02-16T15:12:46Z</time>
      </trkpt>
      <trkpt lat="44.42465" lon="6.84158">
        <ele>2248</ele>
        <time>2010-02-16T15:12:46Z</time>
      </trkpt>
      <trkpt lat="44.42461" lon="6.84149">
        <ele>2250</ele>
        <time>2010-02-16T15:12:46Z</time>
      </trkpt>
      <trkpt lat="44.42464" lon="6.84133">
        <ele>2254</ele>
        <time>2010-02-16T15:12:46Z</time>
      </trkpt>
      <trkpt lat="44.42447" lon="6.84123">
        <ele>2261</ele>
        <time>2010-02-16T15:12:46Z</time>
      </trkpt>
      <trkpt lat="44.42454" lon="6.84118">
        <ele>2262</ele>
        <time>2010-02-16T15:12:46Z</time>
      </trkpt>
      <trkpt lat="44.42458" lon="6.84106">
        <ele>2265</ele>
        <time>2010-02-16T15:12:46Z</time>
      </trkpt>
      <trkpt lat="44.42456" lon="6.84102">
        <ele>2265</ele>
        <time>2010-02-16T15:12:46Z</time>
      </trkpt>
      <trkpt lat="44.42452" lon="6.84105">
        <ele>2269</ele>
        <time>2010-02-16T15:12:46Z</time>
      </trkpt>
      <trkpt lat="44.42446" lon="6.84103">
        <ele>2269</ele>
        <time>2010-02-16T15:12:46Z</time>
      </trkpt>
      <trkpt lat="44.4245" lon="6.84089">
        <ele>2272</ele>
        <time>2010-02-16T15:12:46Z</time>
      </trkpt>
      <trkpt lat="44.42439" lon="6.84077">
        <ele>2279</ele>
        <time>2010-02-16T15:12:46Z</time>
      </trkpt>
      <trkpt lat="44.42421" lon="6.84071">
        <ele>2281</ele>
        <time>2010-02-16T15:12:46Z</time>
      </trkpt>
      <trkpt lat="44.42406" lon="6.84039">
        <ele>2290</ele>
        <time>2010-02-16T15:12:46Z</time>
      </trkpt>
      <trkpt lat="44.42389" lon="6.84044">
        <ele>2296</ele>
        <time>2010-02-16T15:12:46Z</time>
      </trkpt>
      <trkpt lat="44.42386" lon="6.84011">
        <ele>2302</ele>
        <time>2010-02-16T15:12:46Z</time>
      </trkpt>
      <trkpt lat="44.42382" lon="6.84019">
        <ele>2302</ele>
        <time>2010-02-16T15:12:46Z</time>
      </trkpt>
      <trkpt lat="44.42363" lon="6.84028">
        <ele>2307</ele>
        <time>2010-02-16T15:12:46Z</time>
      </trkpt>
      <trkpt lat="44.42365" lon="6.84004">
        <ele>2313</ele>
        <time>2010-02-16T15:12:46Z</time>
      </trkpt>
      <trkpt lat="44.42358" lon="6.83986">
        <ele>2317</ele>
        <time>2010-02-16T15:12:46Z</time>
      </trkpt>
      <trkpt lat="44.42342" lon="6.8399">
        <ele>2319</ele>
        <time>2010-02-16T15:12:46Z</time>
      </trkpt>
      <trkpt lat="44.42336" lon="6.83985">
        <ele>2318</ele>
        <time>2010-02-16T15:12:46Z</time>
      </trkpt>
      <trkpt lat="44.42322" lon="6.8396">
        <ele>2317</ele>
        <time>2010-02-16T15:12:46Z</time>
      </trkpt>
      <trkpt lat="44.42317" lon="6.83927">
        <ele>2319</ele>
        <time>2010-02-16T15:12:46Z</time>
      </trkpt>
      <trkpt lat="44.42296" lon="6.83863">
        <ele>2327</ele>
        <time>2010-02-16T15:12:46Z</time>
      </trkpt>
      <trkpt lat="44.42293" lon="6.83843">
        <ele>2332</ele>
        <time>2010-02-16T15:12:46Z</time>
      </trkpt>
      <trkpt lat="44.42278" lon="6.83851">
        <ele>2335</ele>
        <time>2010-02-16T15:12:46Z</time>
      </trkpt>
      <trkpt lat="44.42269" lon="6.83833">
        <ele>2340</ele>
        <time>2010-02-16T15:12:46Z</time>
      </trkpt>
      <trkpt lat="44.42257" lon="6.83854">
        <ele>2346</ele>
        <time>2010-02-16T15:12:46Z</time>
      </trkpt>
      <trkpt lat="44.42249" lon="6.83829">
        <ele>2350</ele>
        <time>2010-02-16T15:12:46Z</time>
      </trkpt>
      <trkpt lat="44.42239" lon="6.8385">
        <ele>2355</ele>
        <time>2010-02-16T15:12:46Z</time>
      </trkpt>
      <trkpt lat="44.42229" lon="6.83824">
        <ele>2362</ele>
        <time>2010-02-16T15:12:46Z</time>
      </trkpt>
      <trkpt lat="44.42224" lon="6.83823">
        <ele>2365</ele>
        <time>2010-02-16T15:12:46Z</time>
      </trkpt>
      <trkpt lat="44.42219" lon="6.83837">
        <ele>2369</ele>
        <time>2010-02-16T15:12:46Z</time>
      </trkpt>
      <trkpt lat="44.42213" lon="6.83836">
        <ele>2370</ele>
        <time>2010-02-16T15:12:46Z</time>
      </trkpt>
      <trkpt lat="44.42208" lon="6.83811">
        <ele>2375</ele>
        <time>2010-02-16T15:12:46Z</time>
      </trkpt>
      <trkpt lat="44.42191" lon="6.83886">
        <ele>2386</ele>
        <time>2010-02-16T15:12:46Z</time>
      </trkpt>
      <trkpt lat="44.42186" lon="6.83886">
        <ele>2388</ele>
        <time>2010-02-16T15:12:46Z</time>
      </trkpt>
      <trkpt lat="44.42165" lon="6.83858">
        <ele>2396</ele>
        <time>2010-02-16T15:12:46Z</time>
      </trkpt>
      <trkpt lat="44.42157" lon="6.83823">
        <ele>2403</ele>
        <time>2010-02-16T15:12:46Z</time>
      </trkpt>
      <trkpt lat="44.42153" lon="6.83818">
        <ele>2408</ele>
        <time>2010-02-16T15:12:46Z</time>
      </trkpt>
      <trkpt lat="44.42143" lon="6.8379">
        <ele>2415</ele>
        <time>2010-02-16T15:12:46Z</time>
      </trkpt>
      <trkpt lat="44.42138" lon="6.83784">
        <ele>2418</ele>
        <time>2010-02-16T15:12:46Z</time>
      </trkpt>
      <trkpt lat="44.42128" lon="6.83788">
        <ele>2422</ele>
        <time>2010-02-16T15:12:46Z</time>
      </trkpt>
      <trkpt lat="44.42124" lon="6.83755">
        <ele>2429</ele>
        <time>2010-02-16T15:12:46Z</time>
      </trkpt>
      <trkpt lat="44.42112" lon="6.83719">
        <ele>2437</ele>
        <time>2010-02-16T15:12:46Z</time>
      </trkpt>
      <trkpt lat="44.42104" lon="6.83721">
        <ele>2438</ele>
        <time>2010-02-16T15:12:46Z</time>
      </trkpt>
      <trkpt lat="44.42086" lon="6.83706">
        <ele>2442</ele>
        <time>2010-02-16T15:12:46Z</time>
      </trkpt>
      <trkpt lat="44.4207" lon="6.83682">
        <ele>2449</ele>
        <time>2010-02-16T15:12:46Z</time>
      </trkpt>
      <trkpt lat="44.42064" lon="6.83702">
        <ele>2452</ele>
        <time>2010-02-16T15:12:46Z</time>
      </trkpt>
      <trkpt lat="44.42059" lon="6.83682">
        <ele>2455</ele>
        <time>2010-02-16T15:12:46Z</time>
      </trkpt>
      <trkpt lat="44.4205" lon="6.83695">
        <ele>2458</ele>
        <time>2010-02-16T15:12:46Z</time>
      </trkpt>
      <trkpt lat="44.42047" lon="6.83693">
        <ele>2460</ele>
        <time>2010-02-16T15:12:46Z</time>
      </trkpt>
      <trkpt lat="44.42047" lon="6.8368">
        <ele>2462</ele>
        <time>2010-02-16T15:12:46Z</time>
      </trkpt>
      <trkpt lat="44.42036" lon="6.8369">
        <ele>2464</ele>
        <time>2010-02-16T15:12:46Z</time>
      </trkpt>
      <trkpt lat="44.42029" lon="6.83709">
        <ele>2466</ele>
        <time>2010-02-16T15:12:46Z</time>
      </trkpt>
      <trkpt lat="44.42027" lon="6.8368">
        <ele>2473</ele>
        <time>2010-02-16T15:12:46Z</time>
      </trkpt>
      <trkpt lat="44.42025" lon="6.83675">
        <ele>2472</ele>
        <time>2010-02-16T15:12:46Z</time>
      </trkpt>
      <trkpt lat="44.42015" lon="6.83677">
        <ele>2474</ele>
        <time>2010-02-16T15:12:46Z</time>
      </trkpt>
      <trkpt lat="44.42005" lon="6.83691">
        <ele>2477</ele>
        <time>2010-02-16T15:12:46Z</time>
      </trkpt>
      <trkpt lat="44.42002" lon="6.83671">
        <ele>2481</ele>
        <time>2010-02-16T15:12:46Z</time>
      </trkpt>
      <trkpt lat="44.41975" lon="6.83694">
        <ele>2489</ele>
        <time>2010-02-16T15:12:46Z</time>
      </trkpt>
      <trkpt lat="44.41969" lon="6.83663">
        <ele>2495</ele>
        <time>2010-02-16T15:12:46Z</time>
      </trkpt>
      <trkpt lat="44.41951" lon="6.83679">
        <ele>2499</ele>
        <time>2010-02-16T15:12:46Z</time>
      </trkpt>
      <trkpt lat="44.41937" lon="6.83659">
        <ele>2505</ele>
        <time>2010-02-16T15:12:46Z</time>
      </trkpt>
      <trkpt lat="44.41924" lon="6.83669">
        <ele>2509</ele>
        <time>2010-02-16T15:12:46Z</time>
      </trkpt>
      <trkpt lat="44.41903" lon="6.83661">
        <ele>2514</ele>
        <time>2010-02-16T15:12:46Z</time>
      </trkpt>
      <trkpt lat="44.4188" lon="6.83671">
        <ele>2520</ele>
        <time>2010-02-16T15:12:46Z</time>
      </trkpt>
      <trkpt lat="44.41865" lon="6.8367">
        <ele>2520</ele>
        <time>2010-02-16T15:12:46Z</time>
      </trkpt>
      <trkpt lat="44.41814" lon="6.83685">
        <ele>2530</ele>
        <time>2010-02-16T15:12:46Z</time>
      </trkpt>
      <trkpt lat="44.41794" lon="6.83688">
        <ele>2535</ele>
        <time>2010-02-16T15:12:46Z</time>
      </trkpt>
      <trkpt lat="44.4177" lon="6.83682">
        <ele>2541</ele>
        <time>2010-02-16T15:12:46Z</time>
      </trkpt>
      <trkpt lat="44.41746" lon="6.83683">
        <ele>2545</ele>
        <time>2010-02-16T15:12:46Z</time>
      </trkpt>
      <trkpt lat="44.4174" lon="6.83698">
        <ele>2547</ele>
        <time>2010-02-16T15:12:46Z</time>
      </trkpt>
      <trkpt lat="44.41718" lon="6.83698">
        <ele>2552</ele>
        <time>2010-02-16T15:12:46Z</time>
      </trkpt>
      <trkpt lat="44.41675" lon="6.83723">
        <ele>2565</ele>
        <time>2010-02-16T15:12:46Z</time>
      </trkpt>
      <trkpt lat="44.41641" lon="6.83731">
        <ele>2569</ele>
        <time>2010-02-16T15:12:46Z</time>
      </trkpt>
      <trkpt lat="44.41625" lon="6.83728">
        <ele>2572</ele>
        <time>2010-02-16T15:12:46Z</time>
      </trkpt>
      <trkpt lat="44.41578" lon="6.83735">
        <ele>2577</ele>
        <time>2010-02-16T15:12:46Z</time>
      </trkpt>
      <trkpt lat="44.41545" lon="6.83746">
        <ele>2585</ele>
        <time>2010-02-16T15:12:46Z</time>
      </trkpt>
      <trkpt lat="44.41535" lon="6.83743">
        <ele>2588</ele>
        <time>2010-02-16T15:12:46Z</time>
      </trkpt>
      <trkpt lat="44.41499" lon="6.83701">
        <ele>2599</ele>
        <time>2010-02-16T15:12:46Z</time>
      </trkpt>
      <trkpt lat="44.41479" lon="6.83695">
        <ele>2603</ele>
        <time>2010-02-16T15:12:46Z</time>
      </trkpt>
      <trkpt lat="44.41463" lon="6.83702">
        <ele>2607</ele>
        <time>2010-02-16T15:12:46Z</time>
      </trkpt>
      <trkpt lat="44.4147" lon="6.83676">
        <ele>2613</ele>
        <time>2010-02-16T15:12:46Z</time>
      </trkpt>
      <trkpt lat="44.41452" lon="6.8369">
        <ele>2618</ele>
        <time>2010-02-16T15:12:46Z</time>
      </trkpt>
      <trkpt lat="44.41445" lon="6.83688">
        <ele>2619</ele>
        <time>2010-02-16T15:12:46Z</time>
      </trkpt>
      <trkpt lat="44.41451" lon="6.8367">
        <ele>2623</ele>
        <time>2010-02-16T15:12:46Z</time>
      </trkpt>
      <trkpt lat="44.4145" lon="6.83641">
        <ele>2630</ele>
        <time>2010-02-16T15:12:46Z</time>
      </trkpt>
      <trkpt lat="44.41436" lon="6.83661">
        <ele>2636</ele>
        <time>2010-02-16T15:12:46Z</time>
      </trkpt>
      <trkpt lat="44.41422" lon="6.83664">
        <ele>2639</ele>
        <time>2010-02-16T15:12:46Z</time>
      </trkpt>
      <trkpt lat="44.41411" lon="6.83662">
        <ele>2643</ele>
        <time>2010-02-16T15:12:46Z</time>
      </trkpt>
      <trkpt lat="44.41397" lon="6.8367">
        <ele>2645</ele>
        <time>2010-02-16T15:12:46Z</time>
      </trkpt>
      <trkpt lat="44.41385" lon="6.83671">
        <ele>2647</ele>
        <time>2010-02-16T15:12:46Z</time>
      </trkpt>
      <trkpt lat="44.41385" lon="6.83677">
        <ele>2646</ele>
        <time>2010-02-16T15:12:46Z</time>
      </trkpt>
      <trkpt lat="44.41384" lon="6.83673">
        <ele>2645</ele>
        <time>2010-02-16T15:12:46Z</time>
      </trkpt>
      <trkpt lat="44.41369" lon="6.83684">
        <ele>2645</ele>
        <time>2010-02-16T15:12:46Z</time>
      </trkpt>
      <trkpt lat="44.41392" lon="6.83669">
        <ele>2643</ele>
        <time>2010-02-16T15:12:46Z</time>
      </trkpt>
      <trkpt lat="44.41429" lon="6.83661">
        <ele>2637</ele>
        <time>2010-02-16T15:12:46Z</time>
      </trkpt>
      <trkpt lat="44.41432" lon="6.83667">
        <ele>2634</ele>
        <time>2010-02-16T15:12:46Z</time>
      </trkpt>
      <trkpt lat="44.41426" lon="6.83678">
        <ele>2630</ele>
        <time>2010-02-16T15:12:46Z</time>
      </trkpt>
      <trkpt lat="44.41442" lon="6.83689">
        <ele>2621</ele>
        <time>2010-02-16T15:12:46Z</time>
      </trkpt>
      <trkpt lat="44.41451" lon="6.83705">
        <ele>2612</ele>
        <time>2010-02-16T15:12:46Z</time>
      </trkpt>
      <trkpt lat="44.41463" lon="6.8371">
        <ele>2605</ele>
        <time>2010-02-16T15:12:46Z</time>
      </trkpt>
      <trkpt lat="44.41507" lon="6.83705">
        <ele>2597</ele>
        <time>2010-02-16T15:12:46Z</time>
      </trkpt>
      <trkpt lat="44.41523" lon="6.83733">
        <ele>2589</ele>
        <time>2010-02-16T15:12:46Z</time>
      </trkpt>
      <trkpt lat="44.41547" lon="6.83742">
        <ele>2583</ele>
        <time>2010-02-16T15:12:46Z</time>
      </trkpt>
      <trkpt lat="44.41662" lon="6.83725">
        <ele>2565</ele>
        <time>2010-02-16T15:12:46Z</time>
      </trkpt>
      <trkpt lat="44.4169" lon="6.83704">
        <ele>2559</ele>
        <time>2010-02-16T15:12:46Z</time>
      </trkpt>
      <trkpt lat="44.41702" lon="6.83699">
        <ele>2555</ele>
        <time>2010-02-16T15:12:46Z</time>
      </trkpt>
      <trkpt lat="44.41734" lon="6.83697">
        <ele>2548</ele>
        <time>2010-02-16T15:12:46Z</time>
      </trkpt>
      <trkpt lat="44.4175" lon="6.83689">
        <ele>2544</ele>
        <time>2010-02-16T15:12:46Z</time>
      </trkpt>
      <trkpt lat="44.41768" lon="6.83693">
        <ele>2539</ele>
        <time>2010-02-16T15:12:46Z</time>
      </trkpt>
      <trkpt lat="44.4181" lon="6.83684">
        <ele>2528</ele>
        <time>2010-02-16T15:12:46Z</time>
      </trkpt>
      <trkpt lat="44.41832" lon="6.83683">
        <ele>2525</ele>
        <time>2010-02-16T15:12:46Z</time>
      </trkpt>
      <trkpt lat="44.41863" lon="6.83676">
        <ele>2520</ele>
        <time>2010-02-16T15:12:46Z</time>
      </trkpt>
      <trkpt lat="44.41881" lon="6.83664">
        <ele>2518</ele>
        <time>2010-02-16T15:12:46Z</time>
      </trkpt>
      <trkpt lat="44.41886" lon="6.83673">
        <ele>2517</ele>
        <time>2010-02-16T15:12:46Z</time>
      </trkpt>
      <trkpt lat="44.41883" lon="6.83673">
        <ele>2516</ele>
        <time>2010-02-16T15:12:46Z</time>
      </trkpt>
      <trkpt lat="44.41893" lon="6.83672">
        <ele>2515</ele>
        <time>2010-02-16T15:12:46Z</time>
      </trkpt>
      <trkpt lat="44.41926" lon="6.83657">
        <ele>2509</ele>
        <time>2010-02-16T15:12:46Z</time>
      </trkpt>
      <trkpt lat="44.41942" lon="6.83654">
        <ele>2505</ele>
        <time>2010-02-16T15:12:46Z</time>
      </trkpt>
      <trkpt lat="44.41941" lon="6.83664">
        <ele>2503</ele>
        <time>2010-02-16T15:12:46Z</time>
      </trkpt>
      <trkpt lat="44.41948" lon="6.83675">
        <ele>2499</ele>
        <time>2010-02-16T15:12:46Z</time>
      </trkpt>
      <trkpt lat="44.41975" lon="6.8369">
        <ele>2489</ele>
        <time>2010-02-16T15:12:46Z</time>
      </trkpt>
      <trkpt lat="44.42007" lon="6.83703">
        <ele>2476</ele>
        <time>2010-02-16T15:12:46Z</time>
      </trkpt>
      <trkpt lat="44.42052" lon="6.83707">
        <ele>2459</ele>
        <time>2010-02-16T15:12:46Z</time>
      </trkpt>
      <trkpt lat="44.42061" lon="6.83711">
        <ele>2452</ele>
        <time>2010-02-16T15:12:46Z</time>
      </trkpt>
      <trkpt lat="44.42088" lon="6.83723">
        <ele>2443</ele>
        <time>2010-02-16T15:12:46Z</time>
      </trkpt>
      <trkpt lat="44.42098" lon="6.83731">
        <ele>2439</ele>
        <time>2010-02-16T15:12:46Z</time>
      </trkpt>
      <trkpt lat="44.42105" lon="6.83742">
        <ele>2438</ele>
        <time>2010-02-16T15:12:46Z</time>
      </trkpt>
      <trkpt lat="44.42122" lon="6.83751">
        <ele>2433</ele>
        <time>2010-02-16T15:12:46Z</time>
      </trkpt>
      <trkpt lat="44.42129" lon="6.83755">
        <ele>2427</ele>
        <time>2010-02-16T15:12:46Z</time>
      </trkpt>
      <trkpt lat="44.42142" lon="6.8379">
        <ele>2414</ele>
        <time>2010-02-16T15:12:46Z</time>
      </trkpt>
      <trkpt lat="44.42164" lon="6.83814">
        <ele>2406</ele>
        <time>2010-02-16T15:12:46Z</time>
      </trkpt>
      <trkpt lat="44.42188" lon="6.83847">
        <ele>2388</ele>
        <time>2010-02-16T15:12:46Z</time>
      </trkpt>
      <trkpt lat="44.42195" lon="6.83849">
        <ele>2383</ele>
        <time>2010-02-16T15:12:46Z</time>
      </trkpt>
      <trkpt lat="44.42201" lon="6.83858">
        <ele>2377</ele>
        <time>2010-02-16T15:12:46Z</time>
      </trkpt>
      <trkpt lat="44.42206" lon="6.83847">
        <ele>2375</ele>
        <time>2010-02-16T15:12:46Z</time>
      </trkpt>
      <trkpt lat="44.42221" lon="6.83835">
        <ele>2372</ele>
        <time>2010-02-16T15:12:46Z</time>
      </trkpt>
      <trkpt lat="44.42231" lon="6.83835">
        <ele>2365</ele>
        <time>2010-02-16T15:12:46Z</time>
      </trkpt>
      <trkpt lat="44.42255" lon="6.83847">
        <ele>2346</ele>
        <time>2010-02-16T15:12:46Z</time>
      </trkpt>
      <trkpt lat="44.42279" lon="6.83855">
        <ele>2334</ele>
        <time>2010-02-16T15:12:46Z</time>
      </trkpt>
      <trkpt lat="44.42305" lon="6.83871">
        <ele>2323</ele>
        <time>2010-02-16T15:12:46Z</time>
      </trkpt>
      <trkpt lat="44.42306" lon="6.83868">
        <ele>2322</ele>
        <time>2010-02-16T15:12:46Z</time>
      </trkpt>
      <trkpt lat="44.42306" lon="6.83866">
        <ele>2308</ele>
        <time>2010-02-16T15:12:46Z</time>
      </trkpt>
      <trkpt lat="44.42305" lon="6.83867">
        <ele>2327</ele>
        <time>2010-02-16T15:12:46Z</time>
      </trkpt>
      <trkpt lat="44.42325" lon="6.83963">
        <ele>2311</ele>
        <time>2010-02-16T15:12:46Z</time>
      </trkpt>
      <trkpt lat="44.42341" lon="6.83988">
        <ele>2311</ele>
        <time>2010-02-16T15:12:46Z</time>
      </trkpt>
      <trkpt lat="44.42352" lon="6.83993">
        <ele>2310</ele>
        <time>2010-02-16T15:12:46Z</time>
      </trkpt>
      <trkpt lat="44.42359" lon="6.84008">
        <ele>2309</ele>
        <time>2010-02-16T15:12:46Z</time>
      </trkpt>
      <trkpt lat="44.42356" lon="6.84013">
        <ele>2308</ele>
        <time>2010-02-16T15:12:46Z</time>
      </trkpt>
      <trkpt lat="44.42368" lon="6.84016">
        <ele>2303</ele>
        <time>2010-02-16T15:12:46Z</time>
      </trkpt>
      <trkpt lat="44.42382" lon="6.84029">
        <ele>2294</ele>
        <time>2010-02-16T15:12:46Z</time>
      </trkpt>
      <trkpt lat="44.42399" lon="6.84059">
        <ele>2282</ele>
        <time>2010-02-16T15:12:46Z</time>
      </trkpt>
      <trkpt lat="44.42404" lon="6.8408">
        <ele>2276</ele>
        <time>2010-02-16T15:12:46Z</time>
      </trkpt>
      <trkpt lat="44.42401" lon="6.84157">
        <ele>2245</ele>
        <time>2010-02-16T15:12:46Z</time>
      </trkpt>
      <trkpt lat="44.42409" lon="6.84175">
        <ele>2240</ele>
        <time>2010-02-16T15:12:46Z</time>
      </trkpt>
      <trkpt lat="44.42422" lon="6.84187">
        <ele>2235</ele>
        <time>2010-02-16T15:12:46Z</time>
      </trkpt>
      <trkpt lat="44.42442" lon="6.84229">
        <ele>2229</ele>
        <time>2010-02-16T15:12:46Z</time>
      </trkpt>
      <trkpt lat="44.4244" lon="6.84236">
        <ele>2229</ele>
        <time>2010-02-16T15:12:46Z</time>
      </trkpt>
      <trkpt lat="44.42469" lon="6.84247">
        <ele>2218</ele>
        <time>2010-02-16T15:12:46Z</time>
      </trkpt>
      <trkpt lat="44.42494" lon="6.8425">
        <ele>2208</ele>
        <time>2010-02-16T15:12:46Z</time>
      </trkpt>
      <trkpt lat="44.42519" lon="6.84266">
        <ele>2204</ele>
        <time>2010-02-16T15:12:46Z</time>
      </trkpt>
      <trkpt lat="44.42545" lon="6.84253">
        <ele>2196</ele>
        <time>2010-02-16T15:12:46Z</time>
      </trkpt>
      <trkpt lat="44.42572" lon="6.84271">
        <ele>2184</ele>
        <time>2010-02-16T15:12:46Z</time>
      </trkpt>
      <trkpt lat="44.42578" lon="6.84281">
        <ele>2178</ele>
        <time>2010-02-16T15:12:46Z</time>
      </trkpt>
      <trkpt lat="44.42614" lon="6.843">
        <ele>2162</ele>
        <time>2010-02-16T15:12:46Z</time>
      </trkpt>
      <trkpt lat="44.42672" lon="6.84315">
        <ele>2152</ele>
        <time>2010-02-16T15:12:46Z</time>
      </trkpt>
      <trkpt lat="44.427" lon="6.84322">
        <ele>2154</ele>
        <time>2010-02-16T15:12:46Z</time>
      </trkpt>
      <trkpt lat="44.4275" lon="6.84339">
        <ele>2148</ele>
        <time>2010-02-16T15:12:46Z</time>
      </trkpt>
      <trkpt lat="44.42748" lon="6.84341">
        <ele>2156</ele>
        <time>2010-02-16T15:12:46Z</time>
      </trkpt>
      <trkpt lat="44.42756" lon="6.844">
        <ele>2153</ele>
        <time>2010-02-16T15:12:46Z</time>
      </trkpt>
      <trkpt lat="44.42767" lon="6.8441">
        <ele>2148</ele>
        <time>2010-02-16T15:12:46Z</time>
      </trkpt>
      <trkpt lat="44.42795" lon="6.84424">
        <ele>2131</ele>
        <time>2010-02-16T15:12:46Z</time>
      </trkpt>
      <trkpt lat="44.42806" lon="6.84421">
        <ele>2124</ele>
        <time>2010-02-16T15:12:46Z</time>
      </trkpt>
      <trkpt lat="44.42818" lon="6.8441">
        <ele>2118</ele>
        <time>2010-02-16T15:12:46Z</time>
      </trkpt>
      <trkpt lat="44.42826" lon="6.84426">
        <ele>2110</ele>
        <time>2010-02-16T15:12:46Z</time>
      </trkpt>
      <trkpt lat="44.42823" lon="6.84443">
        <ele>2106</ele>
        <time>2010-02-16T15:12:46Z</time>
      </trkpt>
      <trkpt lat="44.4284" lon="6.8446">
        <ele>2095</ele>
        <time>2010-02-16T15:12:46Z</time>
      </trkpt>
      <trkpt lat="44.42851" lon="6.8448">
        <ele>2085</ele>
        <time>2010-02-16T15:12:46Z</time>
      </trkpt>
      <trkpt lat="44.42861" lon="6.84487">
        <ele>2077</ele>
        <time>2010-02-16T15:12:46Z</time>
      </trkpt>
      <trkpt lat="44.42892" lon="6.84524">
        <ele>2055</ele>
        <time>2010-02-16T15:12:46Z</time>
      </trkpt>
      <trkpt lat="44.42892" lon="6.84549">
        <ele>2050</ele>
        <time>2010-02-16T15:12:46Z</time>
      </trkpt>
      <trkpt lat="44.4291" lon="6.8464">
        <ele>2034</ele>
        <time>2010-02-16T15:12:46Z</time>
      </trkpt>
      <trkpt lat="44.42937" lon="6.84652">
        <ele>2018</ele>
        <time>2010-02-16T15:12:46Z</time>
      </trkpt>
      <trkpt lat="44.42961" lon="6.84674">
        <ele>2010</ele>
        <time>2010-02-16T15:12:46Z</time>
      </trkpt>
      <trkpt lat="44.42981" lon="6.84684">
        <ele>2007</ele>
        <time>2010-02-16T15:12:46Z</time>
      </trkpt>
      <trkpt lat="44.43003" lon="6.84756">
        <ele>1998</ele>
        <time>2010-02-16T15:12:46Z</time>
      </trkpt>
      <trkpt lat="44.43021" lon="6.84793">
        <ele>1995</ele>
        <time>2010-02-16T15:12:46Z</time>
      </trkpt>
      <trkpt lat="44.43052" lon="6.84828">
        <ele>1991</ele>
        <time>2010-02-16T15:12:46Z</time>
      </trkpt>
      <trkpt lat="44.43111" lon="6.84869">
        <ele>1981</ele>
        <time>2010-02-16T15:12:46Z</time>
      </trkpt>
      <trkpt lat="44.43133" lon="6.84915">
        <ele>1978</ele>
        <time>2010-02-16T15:12:46Z</time>
      </trkpt>
      <trkpt lat="44.43148" lon="6.84932">
        <ele>1975</ele>
        <time>2010-02-16T15:12:46Z</time>
      </trkpt>
      <trkpt lat="44.43176" lon="6.84957">
        <ele>1970</ele>
        <time>2010-02-16T15:12:46Z</time>
      </trkpt>
      <trkpt lat="44.4322" lon="6.84985">
        <ele>1961</ele>
        <time>2010-02-16T15:12:46Z</time>
      </trkpt>
      <trkpt lat="44.43245" lon="6.85012">
        <ele>1956</ele>
        <time>2010-02-16T15:12:46Z</time>
      </trkpt>
      <trkpt lat="44.43258" lon="6.85036">
        <ele>1955</ele>
        <time>2010-02-16T15:12:46Z</time>
      </trkpt>
      <trkpt lat="44.43324" lon="6.851">
        <ele>1944</ele>
        <time>2010-02-16T15:12:46Z</time>
      </trkpt>
      <trkpt lat="44.43367" lon="6.85124">
        <ele>1940</ele>
        <time>2010-02-16T15:12:46Z</time>
      </trkpt>
      <trkpt lat="44.43408" lon="6.8519">
        <ele>1934</ele>
        <time>2010-02-16T15:12:46Z</time>
      </trkpt>
      <trkpt lat="44.43419" lon="6.85233">
        <ele>1930</ele>
        <time>2010-02-16T15:12:46Z</time>
      </trkpt>
      <trkpt lat="44.43433" lon="6.85259">
        <ele>1927</ele>
        <time>2010-02-16T15:12:46Z</time>
      </trkpt>
      <trkpt lat="44.4346" lon="6.85291">
        <ele>1924</ele>
        <time>2010-02-16T15:12:46Z</time>
      </trkpt>
      <trkpt lat="44.43483" lon="6.85336">
        <ele>1915</ele>
        <time>2010-02-16T15:12:46Z</time>
      </trkpt>
      <trkpt lat="44.43494" lon="6.8534">
        <ele>1912</ele>
        <time>2010-02-16T15:12:46Z</time>
      </trkpt>
      <trkpt lat="44.43508" lon="6.85357">
        <ele>1906</ele>
        <time>2010-02-16T15:12:46Z</time>
      </trkpt>
      <trkpt lat="44.43517" lon="6.85358">
        <ele>1901</ele>
        <time>2010-02-16T15:12:46Z</time>
      </trkpt>
      <trkpt lat="44.43545" lon="6.85377">
        <ele>1891</ele>
        <time>2010-02-16T15:12:46Z</time>
      </trkpt>
      <trkpt lat="44.43557" lon="6.85386">
        <ele>1891</ele>
        <time>2010-02-16T15:12:46Z</time>
      </trkpt>
      <trkpt lat="44.43574" lon="6.85424">
        <ele>1890</ele>
        <time>2010-02-16T15:12:46Z</time>
      </trkpt>
      <trkpt lat="44.43595" lon="6.85446">
        <ele>1884</ele>
        <time>2010-02-16T15:12:46Z</time>
      </trkpt>
      <trkpt lat="44.43621" lon="6.85482">
        <ele>1878</ele>
        <time>2010-02-16T15:12:46Z</time>
      </trkpt>
      <trkpt lat="44.43655" lon="6.85552">
        <ele>1866</ele>
        <time>2010-02-16T15:12:46Z</time>
      </trkpt>
      <trkpt lat="44.4368" lon="6.85582">
        <ele>1859</ele>
        <time>2010-02-16T15:12:46Z</time>
      </trkpt>
      <trkpt lat="44.43693" lon="6.85609">
        <ele>1855</ele>
        <time>2010-02-16T15:12:46Z</time>
      </trkpt>
      <trkpt lat="44.43689" lon="6.85608">
        <ele>1855</ele>
        <time>2010-02-16T15:12:46Z</time>
      </trkpt>
      <trkpt lat="44.43688" lon="6.85614">
        <ele>1853</ele>
        <time>2010-02-16T15:12:46Z</time>
      </trkpt>
      <trkpt lat="44.43697" lon="6.85632">
        <ele>1849</ele>
        <time>2010-02-16T15:12:46Z</time>
      </trkpt>
      <trkpt lat="44.43716" lon="6.85658">
        <ele>1832</ele>
        <time>2010-02-16T15:12:46Z</time>
      </trkpt>
      <trkpt lat="44.43728" lon="6.85689">
        <ele>1825</ele>
        <time>2010-02-16T15:12:46Z</time>
      </trkpt>
      <trkpt lat="44.43737" lon="6.85688">
        <ele>1816</ele>
        <time>2010-02-16T15:12:46Z</time>
      </trkpt>
      <trkpt lat="44.43746" lon="6.85708">
        <ele>1809</ele>
        <time>2010-02-16T15:12:46Z</time>
      </trkpt>
      <trkpt lat="44.43754" lon="6.85705">
        <ele>1805</ele>
        <time>2010-02-16T15:12:46Z</time>
      </trkpt>
      <trkpt lat="44.43765" lon="6.85721">
        <ele>1798</ele>
        <time>2010-02-16T15:12:46Z</time>
      </trkpt>
      <trkpt lat="44.43808" lon="6.85756">
        <ele>1767</ele>
        <time>2010-02-16T15:12:46Z</time>
      </trkpt>
      <trkpt lat="44.4381" lon="6.85767">
        <ele>1765</ele>
        <time>2010-02-16T15:12:46Z</time>
      </trkpt>
      <trkpt lat="44.43816" lon="6.85771">
        <ele>1759</ele>
        <time>2010-02-16T15:12:46Z</time>
      </trkpt>
      <trkpt lat="44.43829" lon="6.85771">
        <ele>1751</ele>
        <time>2010-02-16T15:12:46Z</time>
      </trkpt>
      <trkpt lat="44.43841" lon="6.85755">
        <ele>1744</ele>
        <time>2010-02-16T15:12:46Z</time>
      </trkpt>
      <trkpt lat="44.43838" lon="6.85751">
        <ele>1745</ele>
        <time>2010-02-16T15:12:46Z</time>
      </trkpt>
      <trkpt lat="44.43851" lon="6.85741">
        <ele>1740</ele>
        <time>2010-02-16T15:12:46Z</time>
      </trkpt>
      <trkpt lat="44.43877" lon="6.85731">
        <ele>1732</ele>
        <time>2010-02-16T15:12:46Z</time>
      </trkpt>
      <trkpt lat="44.43886" lon="6.85737">
        <ele>1727</ele>
        <time>2010-02-16T15:12:46Z</time>
      </trkpt>
      <trkpt lat="44.43903" lon="6.8575">
        <ele>1721</ele>
        <time>2010-02-16T15:12:46Z</time>
      </trkpt>
      <trkpt lat="44.43963" lon="6.85812">
        <ele>1706</ele>
        <time>2010-02-16T15:12:46Z</time>
      </trkpt>
      <trkpt lat="44.44015" lon="6.85829">
        <ele>1699</ele>
        <time>2010-02-16T15:12:46Z</time>
      </trkpt>
      <trkpt lat="44.44091" lon="6.8586">
        <ele>1694</ele>
        <time>2010-02-16T15:12:46Z</time>
      </trkpt>
      <trkpt lat="44.44105" lon="6.85834">
        <ele>1689</ele>
        <time>2010-02-16T15:12:46Z</time>
      </trkpt>
      <trkpt lat="44.44156" lon="6.85791">
        <ele>1685</ele>
        <time>2010-02-16T15:12:46Z</time>
      </trkpt>
      <trkpt lat="44.44181" lon="6.8578">
        <ele>1685</ele>
        <time>2010-02-16T15:12:46Z</time>
      </trkpt>
      <trkpt lat="44.44244" lon="6.85701">
        <ele>1683</ele>
        <time>2010-02-16T15:12:46Z</time>
      </trkpt>
      <trkpt lat="44.44332" lon="6.85557">
        <ele>1681</ele>
        <time>2010-02-16T15:12:46Z</time>
      </trkpt>
      <trkpt lat="44.44338" lon="6.85549">
        <ele>1678</ele>
        <time>2010-02-16T15:12:46Z</time>
      </trkpt>
      <trkpt lat="44.4434" lon="6.85546">
        <ele>1682</ele>
        <time>2010-02-16T15:12:46Z</time>
      </trkpt>
      <trkpt lat="44.44386" lon="6.85491">
        <ele>1678</ele>
        <time>2010-02-16T15:12:46Z</time>
      </trkpt>
      <trkpt lat="44.4447" lon="6.85413">
        <ele>1674</ele>
        <time>2010-02-16T15:12:46Z</time>
      </trkpt>
      <trkpt lat="44.4455" lon="6.85353">
        <ele>1672</ele>
        <time>2010-02-16T15:12:46Z</time>
      </trkpt>
      <trkpt lat="44.44546" lon="6.85329">
        <ele>1672</ele>
        <time>2010-02-16T15:12:46Z</time>
      </trkpt>
      <trkpt lat="44.44587" lon="6.85327">
        <ele>1672</ele>
        <time>2010-02-16T15:12:46Z</time>
      </trkpt>
      <trkpt lat="44.44609" lon="6.85287">
        <ele>1671</ele>
        <time>2010-02-16T15:12:46Z</time>
      </trkpt>
      <trkpt lat="44.44637" lon="6.85271">
        <ele>1672</ele>
        <time>2010-02-16T15:12:46Z</time>
      </trkpt>
      <trkpt lat="44.44704" lon="6.85182">
        <ele>1671</ele>
        <time>2010-02-16T15:12:46Z</time>
      </trkpt>
      <trkpt lat="44.44781" lon="6.85093">
        <ele>1669</ele>
        <time>2010-02-16T15:12:46Z</time>
      </trkpt>
      <trkpt lat="44.44803" lon="6.85061">
        <ele>1670</ele>
        <time>2010-02-16T15:12:46Z</time>
      </trkpt>
      <trkpt lat="44.44839" lon="6.84998">
        <ele>1669</ele>
        <time>2010-02-16T15:12:46Z</time>
      </trkpt>
      <trkpt lat="44.44875" lon="6.84917">
        <ele>1669</ele>
        <time>2010-02-16T15:12:46Z</time>
      </trkpt>
      <trkpt lat="44.44951" lon="6.84766">
        <ele>1669</ele>
        <time>2010-02-16T15:12:46Z</time>
      </trkpt>
      <trkpt lat="44.44951" lon="6.84766">
        <ele>1676</ele>
        <time>2010-02-16T15:12:46Z</time>
      </trkpt>
    </trkseg>
  </trk>
</gpx>